星链-35356(STARLINK-35356)

导读 | 豆包AI

STARLINK-35356是美国SpaceX星链星座的卫星,于2025年9月29日发射升空,属于SpaceX打造的星链互联网卫星组网项目,这类卫星主要为全球范围内用户提供低延迟、高速率的宽带互联网服务,进一步扩充了星链低轨卫星星座的在轨规模,提升星座覆盖密度与服务能力,服务全球各个区域的网络接入需求。

基本信息
目录编号:
65836
目录名称:
STARLINK-35356
国际标识:
2025-221P
轨道中心:
EARTH
卫星名称:
星链-35356
卫星全名:
星链-35356(STARLINK-35356)
卫星状态:
在轨 (已飞行187 天)
发射日期:
2025-09-29 UTC
国别 :
美国 (US)
星等 :
--
轨道信息
数据来源 国际轨道数据
星历时间: 2026-04-04T06:51:14+0800
10小时前
查看轨道信息
半长轴: 6853.325km
偏心率: 0.0000805
轨道倾角: 53.158°
近地点辐角 95.649°
升交点赤经 330.829°
平近点角 264.460°
近地点: 474.636km
远地点: 475.74km
周期: 94.105分钟
每日圈数: 15.302091
详细信息
固有亮度:
5
最大亮度:
2.5
卫星平台:
Starlink V1.0
覆盖范围:
全球
运营商:
太空探索技术公司
运营商所在国:
美国
制造商(研发单位):
太空探索技术公司
制造商所在国:
美国
使用方式:
暂无
卫星简介
Starlink 计划是 SpaceX 推出的全球卫星互联网项目,通过发射低轨道卫星,为全球尤其是偏远地区提供高速、低延迟的互联网服务。自 2019 年起,Starlink 已部署数千颗卫星,旨在缩小全球数字鸿沟,推动互联网普及。该项目还为军事、航空等行业提供通信支持,带来广泛经济效益。
2D轨道图
3D轨道图
轨道高度分析图
轨道倾角分析图
轨道综合分析图
查看轨道综合分析图